Tracking 32418 objects as of 9-Dec-2025
HD Live streaming from Space Station
objects crossing your sky now

COSMOS 768

Track COSMOS 768 now!
10-day predictions
COSMOS 768 is classified as:


NORAD ID: 8292
Int'l Code: 1975-086H
Perigee: 1,477.3 km
Apogee: 1,498.6 km
Inclination: 74.0 °
Period: 115.6 minutes
Semi major axis: 7858 km
RCS: 0.6843 m2 (medium)
Launch date: September 17, 1975
Source: Commonwealth of Independent States (former USSR) (CIS)
Launch site: PLESETSK MISSILE AND SPACE COMPLEX (PKMTR)
Your satellite tracking list
Your tracking list is empty




NASA's NSSDC Master Catalog

Two Line Element Set (TLE):
1 08292U 75086H   25342.82313025 -.00000015  00000-0  72667-5 0  9997
2 08292  74.0111   5.1557 0013555 219.4676 314.0788 12.46112116284789
Source of the keplerian elements: AFSPC